Location: Bonny Doon Airfield
(37.0704°N, 122.1252°W)
Time: 15:48:43
(UTC-07:00)

Vanguard 2 - Pass Details

Date: 18 December 2017
Orbit: 553 x 2939 km, 32.9° (Epoch: 21 April)

Event Time Altitude Azimuth Distance (km) Brightness Sun altitude
Rises 18:43:09 0° 273° (W) 3,567 12.3 -21.1°
Reaches altitude 10° 18:46:35 10° 259° (W) 2,306 11.1 -21.7°
Maximum altitude 18:50:29 22° 208° (SSW) 1,385 9.3 -22.5°
Enters shadow 18:53:09 13° 162° (SSE) 1,707 9.2 -23.0°
Drops below altitude 10° 18:53:42 10° 156° (SSE) 1,864 - -23.1°
Sets 18:56:09 0° 139° (SE) 2,707 - -23.6°
